Regional Weather Roundup
Issued by NWS State College, PA

Home | Current Version | Previous Version | Text Only | Print | Product List | Glossary On
Versions: 1 2 3 4 5 6 7 8 9 10 11 12 13 14 15 16 17 18 19 20 21 22 23 24 25 26 27 28 29 30 31 32 33 34 35 36 37 38 39 40 41 42 43 44 45 46 47 48 49 50
000
ASUS41 KCTP 251103
RWRCTP

REGIONAL WEATHER ROUNDUP
NATIONAL WEATHER SERVICE STATE COLLEGE PA
700 AM EDT SAT APR 25 2015

Note: "fair" indicates few or no clouds below 12,000 feet with no
significant weather and/or obstructions to visibility.

* = STATION THAT DOES NOT REPORT PRECIPITATION /E.G. RAIN...SNOW...ETC/
    THUNDER OR FOG.

PAZ002>004-007>009-013>016-020>023-029>032-251200-
WESTERN PENNSYLVANIA

CITY           SKY/WX    TMP DP  RH WIND       PRES   REMARKS
ERIE           MOCLDY    33  26  75 CALM      29.99R
MEADVILLE      CLOUDY    33  23  66 SW3       29.94F
FRANKLIN*      CLOUDY    30  19  64 SW5       29.96F
NEW CASTLE     FAIR      36  29  76 CALM      29.97F
BEAVER COUNTY  NOT AVBL
BUTLER*        CLOUDY    36  23  60 CALM      29.98S
PITTSBURGH INT LGT SNOW  34  32  92 E3        29.96F FOG
PITTSBURGH     LGT SNOW  33  29  85 VRB3      29.97S FOG
INDIANA*       CLOUDY    34  25  69 CALM      29.99S
LATROBE        LGT RAIN  36  34  93 CALM      30.00S
WASHINGTON CO* CLOUDY    39  19  45 NE8       29.98R
$$

PAZ004>006-010>012-017>019-024>028-033>037-041-042-045-046-049>053-251200-
CENTRAL PENNSYLVANIA

CITY           SKY/WX    TMP DP  RH WIND       PRES   REMARKS
BRADFORD       CLOUDY    26  21  81 CALM      29.92R
DUBOIS         CLOUDY    32  21  64 CALM      29.93R
CLEARFIELD     CLOUDY    30  20  66 CALM      29.95R
JOHNSTOWN      CLOUDY    33  16  49 W7        29.92R
ALTOONA        CLOUDY    34  21  59 SW6       29.95R
STATE COLLEGE  CLOUDY    32  21  64 CALM      29.95R
WILLIAMSPORT   PTCLDY    33  24  69 W3        29.97R
SELINSGROVE    MOCLDY    31  27  85 CALM      29.97F
FT INDIANTOWN  MOCLDY    39  19  45 VRB2      29.95F
CAPITAL CITY   CLOUDY    39  19  44 CALM      29.96F
HARRISBURG     CLOUDY    39  25  57 NE3       29.95F
YORK           CLOUDY    32  27  81 CALM      29.96F
$$

PAZ038>040-043-044-047-048-054-055-060>062-067>071-251200-
EASTERN PENNSYLVANIA

CITY           SKY/WX    TMP DP  RH WIND       PRES   REMARKS
SCRANTON       CLEAR     34  22  61 W5        29.93R
MOUNT POCONO   CLEAR     29  21  72 NW10      29.86R
ALLENTOWN      CLEAR     35  22  58 CALM      29.95R
QUAKERTOWN*    MOSUNNY   36  23  60 NW6       29.95S
READING        PTCLDY    38  22  52 W3        29.96S
LANCASTER      MOCLDY    33  24  69 W3        29.96F
COATESVILLE    MOSUNNY   36  25  64 W6        29.96S
POTTSTOWN      PTCLDY    35  23  61 W3        29.97R
BLUE BELL      PTCLDY    37  27  65 CALM      29.96R
DOYLESTOWN     PTCLDY    34  21  59 W3        29.94S
WILLOW GROVE   NOT AVBL
NORTH PHILA    PTCLDY    38  21  50 W8        29.98R
PHILADELPHIA   MOCLDY    41  21  44 W10       29.98R
$$



USA.gov is the U.S. government's official web portal to all federal, state and local government web resources and services.